TimeCDT,TemperatureF,Dew PointF,Humidity,Sea Level PressureIn,VisibilityMPH,Wind Direction,Wind SpeedMPH,Gust SpeedMPH,PrecipitationIn,Events,Conditions,WindDirDegrees,DateUTC
12:15 AM,36.1,30.6,80,30.30,10.0,SE,6.9,-,N/A,,Clear,130,2013-04-26 05:15:00
12:35 AM,34.3,29.3,82,30.30,10.0,SE,5.8,-,N/A,,Clear,130,2013-04-26 05:35:00
12:55 AM,34.9,29.5,81,30.30,10.0,SE,5.8,-,N/A,,Clear,140,2013-04-26 05:55:00
1:15 AM,36.1,29.8,78,30.30,10.0,SE,6.9,-,N/A,,Clear,140,2013-04-26 06:15:00
1:35 AM,36.3,29.3,76,30.30,10.0,SE,5.8,-,N/A,,Clear,140,2013-04-26 06:35:00
1:55 AM,36.1,29.8,78,30.29,10.0,SE,6.9,-,N/A,,Clear,140,2013-04-26 06:55:00
2:15 AM,36.1,29.3,76,30.29,10.0,SE,6.9,-,N/A,,Clear,140,2013-04-26 07:15:00
2:35 AM,38.7,30.9,74,30.29,10.0,SE,9.2,-,N/A,,Clear,140,2013-04-26 07:35:00
2:55 AM,38.7,30.2,72,30.28,10.0,SE,5.8,-,N/A,,Clear,130,2013-04-26 07:55:00
3:15 AM,38.7,29.5,70,30.27,10.0,SE,8.1,-,N/A,,Clear,130,2013-04-26 08:15:00
3:35 AM,38.7,30.0,71,30.27,10.0,ESE,5.8,-,N/A,,Clear,120,2013-04-26 08:35:00
3:55 AM,38.7,30.6,73,30.27,10.0,ESE,6.9,-,N/A,,Clear,120,2013-04-26 08:55:00
4:15 AM,38.7,31.6,76,30.27,10.0,SE,9.2,-,N/A,,Clear,140,2013-04-26 09:15:00
4:35 AM,40.1,31.6,72,30.27,10.0,SE,10.4,-,N/A,,Clear,140,2013-04-26 09:35:00
4:55 AM,41.2,32.0,70,30.27,10.0,SE,9.2,-,N/A,,Scattered Clouds,140,2013-04-26 09:55:00
5:15 AM,41.7,32.0,68,30.27,10.0,SE,10.4,-,N/A,,Mostly Cloudy,140,2013-04-26 10:15:00
5:35 AM,43.7,33.3,67,30.28,10.0,SE,9.2,-,N/A,,Mostly Cloudy,140,2013-04-26 10:35:00
5:55 AM,43.2,32.9,67,30.29,10.0,SE,8.1,-,N/A,,Mostly Cloudy,140,2013-04-26 10:55:00
6:15 AM,40.5,32.4,73,30.30,10.0,ENE,3.5,-,N/A,,Mostly Cloudy,70,2013-04-26 11:15:00
6:35 AM,41.0,33.4,74,30.29,10.0,East,4.6,-,N/A,,Mostly Cloudy,90,2013-04-26 11:35:00
6:55 AM,41.4,33.6,74,30.28,10.0,ESE,5.8,-,N/A,,Scattered Clouds,110,2013-04-26 11:55:00
7:15 AM,43.7,34.2,69,30.28,10.0,ESE,6.9,-,N/A,,Scattered Clouds,120,2013-04-26 12:15:00
7:35 AM,47.1,35.4,64,30.28,10.0,SE,12.7,-,N/A,,Scattered Clouds,140,2013-04-26 12:35:00
7:55 AM,49.1,35.8,60,30.27,10.0,SE,15.0,-,N/A,,Clear,140,2013-04-26 12:55:00
8:15 AM,51.4,35.8,55,30.27,10.0,SSE,18.4,27.6,N/A,,Scattered Clouds,150,2013-04-26 13:15:00
8:35 AM,54.0,37.6,54,30.26,10.0,SSE,19.6,24.2,N/A,,Scattered Clouds,150,2013-04-26 13:35:00
8:55 AM,54.0,38.7,56,30.26,10.0,SSE,20.7,-,N/A,,Scattered Clouds,150,2013-04-26 13:55:00
9:15 AM,54.0,37.4,54,30.26,10.0,SSE,20.7,27.6,N/A,,Clear,150,2013-04-26 14:15:00
9:35 AM,55.9,39.0,53,30.26,10.0,SSE,23.0,26.5,N/A,,Clear,150,2013-04-26 14:35:00
9:55 AM,56.5,38.7,51,30.25,10.0,SSE,24.2,-,N/A,,Clear,150,2013-04-26 14:55:00
10:15 AM,59.0,39.6,49,30.25,10.0,SSE,27.6,32.2,N/A,,Clear,160,2013-04-26 15:15:00
10:35 AM,59.0,40.1,50,30.25,10.0,SSE,23.0,31.1,N/A,,Clear,160,2013-04-26 15:35:00
10:55 AM,61.7,40.5,46,30.26,10.0,SSE,24.2,28.8,N/A,,Clear,160,2013-04-26 15:55:00
11:15 AM,61.7,40.3,45,30.26,10.0,South,24.2,29.9,N/A,,Clear,170,2013-04-26 16:15:00
11:35 AM,64.0,41.9,44,30.26,10.0,South,21.9,26.5,N/A,,Clear,170,2013-04-26 16:35:00
11:55 AM,64.0,42.8,46,30.26,10.0,South,23.0,-,N/A,,Clear,190,2013-04-26 16:55:00
12:15 PM,64.4,42.3,44,30.26,10.0,South,19.6,27.6,N/A,,Clear,190,2013-04-26 17:15:00
12:35 PM,65.5,43.3,45,30.26,10.0,South,20.7,27.6,N/A,,Clear,190,2013-04-26 17:35:00
12:55 PM,67.5,43.3,42,30.25,10.0,South,19.6,25.3,N/A,,Clear,190,2013-04-26 17:55:00
1:15 PM,69.4,44.4,41,30.24,10.0,South,21.9,27.6,N/A,,Clear,190,2013-04-26 18:15:00
1:35 PM,68.5,44.1,41,30.24,10.0,South,18.4,28.8,N/A,,Clear,190,2013-04-26 18:35:00
1:55 PM,69.4,45.5,42,30.22,10.0,South,23.0,27.6,N/A,,Clear,180,2013-04-26 18:55:00
2:15 PM,70.2,45.5,41,30.23,10.0,South,19.6,32.2,N/A,,Clear,190,2013-04-26 19:15:00
2:35 PM,69.3,44.2,40,30.23,10.0,SSW,21.9,33.4,N/A,,Scattered Clouds,200,2013-04-26 19:35:00
2:55 PM,69.1,45.7,43,30.22,10.0,SSW,24.2,31.1,N/A,,Scattered Clouds,200,2013-04-26 19:55:00
3:15 PM,70.2,45.0,40,30.21,10.0,South,26.5,34.5,N/A,,Scattered Clouds,190,2013-04-26 20:15:00
3:35 PM,70.0,43.7,39,30.21,10.0,SSW,21.9,38.0,N/A,,Clear,200,2013-04-26 20:35:00
3:55 PM,69.3,43.2,39,30.21,10.0,South,25.3,32.2,N/A,,Clear,190,2013-04-26 20:55:00
4:15 PM,69.6,44.1,40,30.21,10.0,SSW,25.3,33.4,N/A,,Clear,200,2013-04-26 21:15:00
4:35 PM,69.3,43.3,39,30.21,10.0,South,26.5,-,N/A,,Clear,180,2013-04-26 21:35:00
4:55 PM,69.1,42.8,39,30.21,10.0,South,18.4,29.9,N/A,,Clear,190,2013-04-26 21:55:00
5:15 PM,68.5,42.8,39,30.22,10.0,South,20.7,29.9,N/A,,Clear,180,2013-04-26 22:15:00
5:35 PM,66.6,43.5,43,30.22,10.0,South,19.6,29.9,N/A,,Clear,180,2013-04-26 22:35:00
5:55 PM,65.8,44.4,46,30.23,10.0,South,21.9,26.5,N/A,,Scattered Clouds,170,2013-04-26 22:55:00
6:15 PM,65.1,45.0,48,30.23,10.0,South,15.0,26.5,N/A,,Scattered Clouds,180,2013-04-26 23:15:00
6:35 PM,64.0,45.5,51,30.23,10.0,South,15.0,21.9,N/A,,Scattered Clouds,180,2013-04-26 23:35:00
6:55 PM,62.6,46.4,55,30.24,10.0,South,13.8,-,N/A,,Overcast,180,2013-04-26 23:55:00
7:15 PM,61.9,45.7,55,30.24,10.0,South,12.7,-,N/A,,Overcast,180,2013-04-27 00:15:00
7:35 PM,61.5,46.6,58,30.24,10.0,South,12.7,18.4,N/A,,Overcast,180,2013-04-27 00:35:00
7:55 PM,59.0,46.4,63,30.24,10.0,South,12.7,17.3,N/A,,Mostly Cloudy,170,2013-04-27 00:55:00
8:15 PM,59.0,47.1,65,30.24,10.0,South,15.0,-,N/A,,Scattered Clouds,180,2013-04-27 01:15:00
8:35 PM,56.5,44.6,64,30.25,10.0,South,13.8,-,N/A,,Clear,180,2013-04-27 01:35:00
8:55 PM,56.5,45.5,67,30.26,10.0,South,15.0,-,N/A,,Clear,170,2013-04-27 01:55:00
9:15 PM,56.3,45.9,68,30.27,10.0,South,11.5,-,N/A,,Clear,170,2013-04-27 02:15:00
9:35 PM,54.9,45.3,70,30.27,10.0,South,10.4,-,N/A,,Clear,170,2013-04-27 02:35:00
9:55 PM,54.0,46.0,75,30.27,10.0,SSE,12.7,-,N/A,,Scattered Clouds,160,2013-04-27 02:55:00
10:15 PM,54.1,45.5,73,30.28,10.0,South,12.7,-,N/A,,Scattered Clouds,180,2013-04-27 03:15:00
10:35 PM,55.4,46.2,71,30.28,10.0,South,12.7,-,N/A,,Overcast,170,2013-04-27 03:35:00
10:55 PM,54.0,45.1,72,30.28,10.0,South,15.0,-,N/A,,Mostly Cloudy,170,2013-04-27 03:55:00
11:15 PM,54.0,45.0,72,30.28,10.0,South,16.1,-,N/A,,Clear,170,2013-04-27 04:15:00
11:35 PM,54.0,45.5,73,30.28,10.0,South,15.0,-,N/A,,Clear,170,2013-04-27 04:35:00
11:55 PM,54.0,46.6,76,30.28,10.0,South,13.8,-,N/A,,Clear,170,2013-04-27 04:55:00